Location: Newark
(43.0000°N, 1.6781°W)
Time: 08:27:01
(UTC+00:00)

Transit 4A - Visible Passes

Search period start: 07 October 2022 00:00
Search period end: 17 October 2022 00:00
Orbit: 870 x 974 km, 66.8° (Epoch: 06 October)

Date Brightness Start Highest point End Pass type
(mag) Time Alt. Az. Time Alt. Az. Time Alt. Az.
07 Oct 10.1 04:24:46 10° N 04:29:08 21° NE 04:33:28 10° E visible
08 Oct 9.7 04:33:42 10° NNW 04:38:42 28° NE 04:43:38 10° ESE visible
09 Oct 10.6 02:59:03 10° NNE 03:00:01 10° NNE 03:01:00 10° NE visible
09 Oct 9.2 04:42:43 10° NNW 04:48:11 38° NE 04:53:34 10° ESE visible
09 Oct 10.0 19:50:11 10° S 19:50:34 12° S 19:50:34 12° S visible
10 Oct 10.5 03:07:02 10° N 03:09:50 13° NNE 03:12:36 10° ENE visible
10 Oct 8.5 04:51:49 10° NNW 04:57:34 54° NE 05:03:15 10° SE visible
10 Oct 9.2 19:59:00 10° SSW 20:01:40 27° S 20:01:40 27° S visible
11 Oct 10.2 03:15:42 10° N 03:19:33 17° NE 03:23:21 10° ENE visible
11 Oct 7.9 05:01:00 10° NNW 05:06:52 78° ENE 05:12:40 10° SE visible
11 Oct 9.3 18:25:36 10° SE 18:28:47 15° ESE 18:29:06 14° E visible
11 Oct 8.2 20:08:06 10° SSW 20:12:44 53° SSW 20:12:44 53° SSW visible
12 Oct 9.9 03:24:34 10° N 03:29:11 23° NE 03:33:43 10° E visible
12 Oct 7.7 05:10:16 10° NW 05:16:06 73° WSW 05:21:52 10° SSE visible
12 Oct 8.9 18:33:07 10° SSE 18:37:44 22° ESE 18:40:03 18° ENE visible
12 Oct 8.1 20:17:27 10° SW 20:23:35 65° NW 20:23:41 64° NW visible
13 Oct 9.4 03:33:32 10° NNW 03:38:42 31° NE 03:43:49 10° ESE visible
13 Oct 8.0 05:19:39 10° NW 05:25:15 49° WSW 05:30:47 10° S visible
13 Oct 8.5 18:41:20 10° S 18:46:45 33° ESE 18:50:46 16° NE visible
13 Oct 8.8 20:27:03 10° SW 20:32:56 46° NW 20:34:23 39° NNW visible
14 Oct 10.6 01:58:46 11° NNE 02:00:08 11° NNE 02:01:55 10° NE visible
14 Oct 8.8 03:42:35 10° NNW 03:48:09 43° NE 03:53:39 10° ESE visible
14 Oct 8.5 05:29:12 10° NW 05:34:19 32° WSW 05:39:24 10° S visible
14 Oct 8.0 18:49:56 10° S 18:55:50 48° ESE 19:01:09 12° NE visible
14 Oct 9.3 20:36:53 10° WSW 20:42:22 33° NW 20:44:44 25° N visible
15 Oct 10.3 02:09:22 14° NNE 02:09:54 15° NNE 02:13:03 10° ENE visible
15 Oct 8.2 03:53:00 17° NNW 03:57:30 62° NE 04:03:14 10° SE visible
15 Oct 8.9 05:39:02 10° WNW 05:43:19 22° WSW 05:47:35 10° SSW visible
15 Oct 7.8 18:58:51 10° SSW 19:04:59 71° ESE 19:10:59 10° NE visible
15 Oct 9.8 20:46:58 10° W 20:51:53 25° NW 20:54:43 18° N visible
16 Oct 10.1 02:20:14 19° NE 02:20:14 19° NE 02:23:40 10° E visible
16 Oct 7.7 04:03:53 32° NNW 04:06:47 88° ENE 04:12:35 10° SSE visible
16 Oct 9.3 05:49:26 10° WNW 05:52:15 14° WSW 05:55:03 10° SW visible
16 Oct 7.9 19:08:03 10° SSW 19:14:13 81° WNW 19:20:15 10° NNE visible
16 Oct 10.2 20:57:20 10° W 21:01:29 19° NW 21:04:25 14° N visible
